Wooster, OH

8:17 AM EST on February 23, 2018 (GMT -0500)
Wayne County

Weather History for KBJJ - February, 2014

Change the Weather History Date:

Saturday, February 1, 2014

  Actual Average Record
Temperature  
Mean Temperature 34 °F -  
Max Temperature 41 °F 33 °F 57 °F (2016)
Min Temperature 28 °F 18 °F -5 °F (2004)
Degree Days  
Heating Degree Days 30    
Moisture  
Dew Point 30 °F    
Average Humidity 80    
Maximum Humidity 96    
Minimum Humidity 62    
Precipitation  
Precipitation 0.05 in - - ()
Sea Level Pressure  
Sea Level Pressure 29.99 in    
Wind  
Wind Speed 6 mph (South)    
Max Wind Speed 15 mph    
Max Gust Speed -    
Visibility 7 miles    
Events Rain , Snow    
Averages and records for this station are not official NWS values.
T = Trace of Precipitation, MM = Missing Value Source: NWS Daily Summary

Daily Weather History Graph

Daily Weather History Graph

Search for Another Location

Airport or City:

Trip Planner

Search our weather history database for the weather conditions in past years. The results will help you decide how hot, cold, wet, or windy it might be!

Date:

Astronomy

Feb. 01, 2014 Rise Set
Actual Time 7:37 AM EST 5:44 PM EST
Civil Twilight 7:08 AM EST 6:13 PM EST
Nautical Twilight 6:36 AM EST 6:46 PM EST
Astronomical Twilight 6:03 AM EST 7:19 PM EST
Moon 8:25 AM EST (2/1) 8:20 PM EST (2/1)
Length of Visible Light 11h 05m
Length of Day
10h 07m
Waxing Crescent, 5% of the Moon is Illuminated
Feb 1
Waxing Crescent
Feb 6
First Quarter
Feb 14
Full
Feb 22
Last Quarter
Mar 1
New

Hourly Weather History & Observations

Time (EST) Temp. Windchill Dew Point Humidity Pressure Visibility Wind Dir Wind Speed Gust Speed Precip Events Conditions
12:22 AM 28.0 °F 24.2 °F 27.0 °F 96% 30.12 in 3.0 mi SSE 3.5 mph - N/A   Overcast
12:56 AM 28.0 °F 24.2 °F 26.1 °F 92% 30.16 in 4.0 mi SE 3.5 mph - N/A   Overcast
1:56 AM 28.9 °F 25.2 °F 26.1 °F 89% 30.15 in 5.0 mi East 3.5 mph - N/A   Overcast
2:56 AM 30.0 °F 25.2 °F 27.0 °F 88% 30.14 in 5.0 mi SE 4.6 mph - N/A   Overcast
3:56 AM 30.0 °F 25.2 °F 27.0 °F 88% 30.14 in 5.0 mi ESE 4.6 mph - N/A   Overcast
4:56 AM 30.9 °F 26.2 °F 27.0 °F 85% 30.13 in 7.0 mi SE 4.6 mph - N/A   Overcast
5:36 AM 30.9 °F 24.3 °F 27.0 °F 85% 30.09 in 7.0 mi SSE 6.9 mph - N/A   Overcast
5:56 AM 30.9 °F 26.2 °F 27.0 °F 85% 30.12 in 6.0 mi SSE 4.6 mph - 0.00 in Snow Light Snow
6:56 AM 32.0 °F 25.6 °F 26.1 °F 79% 30.11 in 6.0 mi SE 6.9 mph - 0.00 in Snow Light Snow
7:56 AM 32.0 °F 24.8 °F 27.0 °F 82% 30.09 in 7.0 mi SE 8.1 mph - 0.00 in   Overcast
8:56 AM 34.0 °F 28.0 °F 28.9 °F 82% 30.07 in 5.0 mi SSE 6.9 mph - 0.03 in Rain Light Rain
9:56 AM 35.1 °F 28.6 °F 30.0 °F 82% 30.05 in 6.0 mi South 8.1 mph - 0.01 in   Haze
10:04 AM 36.0 °F 28.5 °F 30.0 °F 79% 30.01 in 7.0 mi South 10.4 mph - N/A   Overcast
10:37 AM 37.0 °F 29.3 °F 30.9 °F 79% 29.99 in 8.0 mi South 11.5 mph - N/A   Overcast
10:56 AM 37.0 °F 29.8 °F 30.0 °F 76% 30.03 in 9.0 mi South 10.4 mph - N/A   Overcast
11:56 AM 37.9 °F 30.9 °F 30.9 °F 76% 29.99 in 9.0 mi South 10.4 mph - N/A   Overcast
12:56 PM 39.9 °F 31.8 °F 30.9 °F 70% 29.94 in 10.0 mi South 15.0 mph - N/A   Overcast
1:56 PM 41.0 °F 35.2 °F 30.0 °F 65% 29.91 in 10.0 mi South 9.2 mph - 0.00 in   Overcast
2:32 PM 41.0 °F 35.8 °F 30.0 °F 65% 29.86 in 10.0 mi SSW 8.1 mph - N/A   Overcast
2:56 PM 41.0 °F 35.8 °F 28.9 °F 62% 29.89 in 10.0 mi SSW 8.1 mph - N/A   Overcast
3:56 PM 41.0 °F 38.0 °F 28.9 °F 62% 29.89 in 10.0 mi South 4.6 mph - 0.00 in Rain Light Rain
4:56 PM 39.9 °F 37.8 °F 30.0 °F 68% 29.89 in 10.0 mi SW 3.5 mph - 0.00 in   Overcast
5:56 PM 37.0 °F 31.6 °F 30.9 °F 79% 29.88 in 10.0 mi South 6.9 mph - N/A   Overcast
6:56 PM 39.0 °F 34.8 °F 30.0 °F 70% 29.88 in 10.0 mi West 5.8 mph - N/A   Overcast
7:56 PM 39.0 °F 36.8 °F 30.0 °F 70% 29.90 in 10.0 mi West 3.5 mph - N/A   Overcast
8:56 PM 39.9 °F 35.1 °F 30.9 °F 70% 29.91 in 10.0 mi West 6.9 mph - 0.00 in Rain Light Rain
9:56 PM 39.9 °F 35.8 °F 35.1 °F 83% 29.91 in 10.0 mi SW 5.8 mph - 0.00 in Rain Light Rain
10:41 PM 39.9 °F 35.8 °F 36.0 °F 86% 29.89 in 10.0 mi WSW 5.8 mph - 0.01 in   Overcast
10:56 PM 39.0 °F 35.7 °F 36.0 °F 89% 29.91 in 8.0 mi SSW 4.6 mph - 0.01 in   Overcast
11:07 PM 39.0 °F 35.7 °F 36.0 °F 89% 29.89 in 6.0 mi SSW 4.6 mph - 0.00 in Rain Light Rain
11:48 PM 39.0 °F - 37.0 °F 93% 29.89 in 2.0 mi Calm Calm - 0.00 in Rain Light Rain
11:56 PM 39.0 °F 36.8 °F 37.9 °F 96% 29.92 in 1.8 mi WNW 3.5 mph - 0.00 in   Overcast